Probability
0 0 0 0 0 0 0 0 0 0 0 0 0 0 0 0 0 0 0 0 0 0 0 0 0 0 0 0 0 0 0 0 0 0 0 0 0 0 0 0 0 0 0 0
0 0 0 0 0 0 0 0 0 0 0 0 0 0 0 0 0 0 0 0 0 0 0 0 0 0 0 0 0 0 0 0 0 0 0 0 0 0 0 0 0 0 0 0
0 0 0 0 0 0 0 0 0 0 0 0 0 0 0 0 0 0 0 0 0 0 0 0 0 0 0 0 0 0 0 0 0 0 0 0 0 0 0 0 0 0 0 0
0 0 0 0 0 0 0 0 0 0 0 0 0 0 0 0 0 0 0 0 0 0 0 0 0 0 0 0 0 0 0 0 0 0 0 0 0 0 0 0 0 0 0 0
0 0 0 0 0 0 0 0 0 0 0 0 0 0 0 0 0 0 0 0 0 0 0 0 0 0 0 0 0 0 0 0 0 0 0 0 0 0 0 0 0 0 0 0
0 0 0 0 0 0 0 0 0 0 0 0 0 0 0 0 0 0 0 0 0 0 0 0 0 0 0 0 0 0 0 0 0 0 0 0 0 0 0 0 0 0 0 0
0 0 0 0 0 0 0 0 0 0 0 0 0 0 0 0 0 0 0 0 0 0 0 0 0 0 0 0 0 0 0 0 0 0 0 0 0 0 0 0 0 0 0 0
0 0 0 0 0 0 0 0 0 0 0 0 0 0 0 0 0 0 0 0 0 0 0 0 0 0 0 0 0 0 0 0 0 0 0 0 0 0 0 0 0 0 0 0
0 0 0 0 0 0 0 0 0 0 0 0 0 0 0 0 0 0 0 0 0 0 0 0 0 0 0 0 0 0 0 0 0 0 0 0 0 0 0 0 0 0 0 0
0 0 0 0 0 0 0 0 0 0 0 0 0 0 0 0 0 0 0 0 0 0 0 0 0 0 0 0 0 0 0 0 0 0 0 0 0 0 0 0 0 0 0 0
0 0 0 0 0 0 0 0 0 0 0 0 0 0 0 0 0 0 0 0 0 0 0 0 0 0 0 0 0 0 0 0 0 0 0 0 0 0 0 0 0 0 0 0
0 0 0 0 0 0 0 0 0 0 0 0 0 0 0 0 0 0 0 0 0 0 0 0 0 0 0 0 0 0 0 0 0 0 0 0 0 0 0 0 0 0 0 0
0 0 0 0 0 0 0 0 0 0 0 0 0 0 0 0 0 0 0 0 0 0 0 0 0 0 0 0 0 0 0 0 0 0 0 0 0 0 0 0 0 0 0 0
0 0 0 0 0 0 0 0 0 0 0 0 0 0 0 0 0 0 0 0 0 0 0 0 0 0 0 0 0 0 0 0 0 0 0 0 0 0 0 0 0 0 0 0
0 0 0 0 0 0 0 0 0 0 0 0 0 0 0 0 0 0 0 0 0 0 0 0 0 0 0 0 0 0 0 0 0 0 0 0 0 0 0 0 0 0 0 0
0 0 0 0 0 0 0 0 0 0 0 0 0 0 0 0 0 0 0 0 0 0 0 0 0 0 0 0 0 0 0 0 0 0 0 0 0 0 0 0 0 0 0 0
0 0 0 0 0 0 0 0 0 0 0 0 0 0 0 0 0 0 0 0 0 0 0 0 0 0 0 0 0 0 0 0 0 0 0 0 0 0 0 0 0 0 0 0
0 0 0 0 0 0 0 0 0 0 0 0 0 0 0 0 0 0 0 0 0 0 0 0 0 0 0 0 0 0 0 0 0 0 0 0 0 0 0 0 0 0 0 0
0 0 0 0 0 0 0 0 0 0 0 0 0 0 0 0 0 0 0 0 0 0 0 0 0 0 0 0 0 0 0 0 0 0 0 0 0 0 0 0 0 0 0 0
0 0 0 0 0 0 0 0 0 0 0 0 0 0 0 0 0 0 0 0 0 0 0 0 0 0 0 0 0 0 0 0 0 0 0 0 0 0 0 0 0 0 0 0
0 0 0 0 0 0 0 0 0 0 0 0 0 0 0 0 0 0 0 0 0 0 0 0 0 0 0 0 0 0 0 0 0 0 0 0 0 0 0 0 0 0 0 0
0 0 0 0 0 0 0 0 0 0 0 0 0 0 0 0 0 0 0 0 0 0 0 0 0 0 0 0 0 0 0 0 0 0 0 0 0 0 0 0 0 0 0 0
0 0 0 0 0 0 0 0 0 0 0 0 0 0 0 0 0 0 0 0 0 0 0 0 0 0 0 0 0 0 0 0 0 0 0 0 0 0 0 0 0 0 0 0
0 0 0 0 0 0 0 0 0 0 0 0 0 0 0 0 0 0 0 0 0 0 0 0 0 0 0 0 0 0 0 0 0 0 0 0 0 0 0 0 0 0 0 0
0 0 0 0 0 0 0 0 0 0 0 0 0 0 0 0 0 0 0 0 0 0 0 0 0 0 0 0 0 0 0 0 0 0 0 0 0 0 0 0 0 0 0 0
0 0 0 0 0 0 0 0 0 0 0 0 0 0 0 0 0 0 0 0 0 0 0 0 0 0 0 0 0 0 0 0 0 0 0 0 0 0 0 0 0 0 0 0
Wind_Speed
3 4 9 15 17 11 6 8 12 14 10 6 14 20 19 17 14 16 16 17 19 20 22 17 14 11 11 12 15 18 19 18 15 14 13 13 15 13 12 11 12 14 13 13
3 9 16 9 3 5 7 11 16 15 10 7 14 23 16 16 18 20 22 21 21 19 19 18 13 9 11 13 16 17 19 18 18 18 15 8 8 8 8 7 10 12 13 14
12 7 7 7 6 7 10 11 14 14 9 7 12 17 11 13 14 17 19 19 20 20 21 20 15 11 9 12 14 14 17 18 19 15 8 5 5 4 6 9 11 12 13 14
9 6 4 6 8 11 13 12 14 12 8 7 3 18 7 12 12 14 19 18 18 17 17 17 15 12 7 9 8 12 15 17 17 16 15 17 16 17 18 13 13 13 15 15
8 4 5 8 11 11 12 5 6 6 6 8 4 11 18 9 8 13 17 16 16 15 14 12 10 8 7 6 8 11 14 16 17 18 21 21 19 15 8 7 13 14 13 14
8 4 6 9 6 8 5 2 2 3 1 11 8 10 25 8 10 9 11 12 13 12 11 8 6 5 6 5 5 6 10 13 14 18 19 21 21 15 12 12 15 14 10 12
6 5 5 4 3 2 4 3 4 5 2 13 5 10 16 5 7 8 8 9 10 9 8 8 9 8 8 8 6 5 8 11 11 15 18 20 19 16 17 16 16 15 12 13
6 10 7 6 9 7 7 9 9 8 9 9 3 15 12 6 4 4 6 8 9 11 8 8 8 8 8 8 7 6 8 10 10 14 16 13 13 11 12 13 13 15 14 15
6 9 2 2 4 5 5 8 8 7 8 12 13 13 14 3 7 8 8 8 9 10 9 8 8 8 8 8 7 7 8 9 9 12 12 12 13 14 13 12 11 11 10 10
1 10 5 3 0 2 7 4 3 5 7 12 14 18 20 10 8 7 7 8 9 9 9 10 10 10 9 8 7 6 6 8 8 10 12 12 13 14 12 10 14 13 12 12
5 8 9 3 9 9 6 5 7 6 7 8 10 15 9 8 6 7 9 8 9 10 11 10 10 11 11 10 9 7 7 7 7 9 10 12 12 11 11 11 13 13 12 14
9 8 12 11 9 8 10 13 12 13 15 12 14 16 12 13 12 11 12 10 10 11 13 14 15 15 16 16 14 12 10 8 8 8 9 11 10 10 12 14 13 13 15 16
5 7 10 8 4 1 5 5 7 9 11 14 19 13 7 14 18 16 14 13 13 15 16 17 17 17 18 18 17 16 14 12 10 8 9 10 10 12 15 16 14 14 15 16
7 9 14 19 15 8 8 9 9 12 12 15 16 18 17 18 19 18 14 13 13 14 15 17 17 16 16 16 16 17 16 15 14 11 9 11 12 14 15 13 13 14 15 16
3 8 11 15 15 12 16 18 18 21 21 21 23 25 14 10 12 12 12 13 15 16 16 16 15 14 15 16 16 16 17 16 16 15 12 12 11 10 11 11 12 13 14 16
2 5 6 12 16 15 19 22 24 25 22 22 22 12 9 8 9 10 11 14 15 15 15 14 14 14 15 16 16 16 16 16 15 16 15 13 11 9 9 10 10 12 14 13
4 5 4 9 9 8 13 13 14 11 6 5 4 4 7 9 11 9 7 11 13 14 14 13 13 13 13 13 13 15 15 14 14 14 14 14 13 11 9 8 9 13 13 13
8 6 4 5 3 12 8 2 2 1 5 7 6 0 4 7 8 7 6 8 11 11 11 11 11 12 12 12 12 13 13 12 13 13 14 14 14 13 10 8 9 10 10 12
12 9 5 4 6 10 3 1 2 1 3 4 1 3 6 7 7 7 7 7 8 9 9 9 9 11 11 11 11 13 13 12 12 13 14 14 14 14 11 10 9 8 8 11
0 7 7 6 6 8 5 3 5 3 6 5 3 6 8 7 7 8 7 7 9 9 8 9 9 9 10 10 10 12 13 12 13 14 15 13 13 13 12 11 9 6 7 9
2 1 4 7 7 10 6 3 2 1 6 6 8 9 9 8 10 11 12 11 10 10 10 9 9 9 9 9 10 12 13 13 13 14 15 14 12 12 11 10 7 5 5 6
5 4 4 3 4 11 4 2 3 9 9 10 11 11 12 12 13 13 13 12 11 11 11 10 9 10 10 8 9 12 13 12 13 14 16 15 13 11 9 9 7 6 6 7
8 9 7 10 11 8 6 10 13 11 13 14 13 13 13 13 14 13 13 13 13 13 12 9 9 12 11 8 8 12 14 12 13 15 16 16 15 12 9 9 8 6 7 7
8 7 7 10 14 15 16 16 16 15 16 16 14 12 11 13 14 14 14 15 14 13 12 10 10 13 14 10 9 10 11 11 12 15 17 15 16 14 11 9 8 8 9 9
10 6 8 14 16 15 16 16 15 14 12 11 10 9 10 11 14 14 13 15 15 16 14 11 11 14 16 13 12 10 9 10 14 16 17 16 14 15 12 10 10 11 11 12
10 12 15 18 17 14 14 11 9 9 8 7 8 10 10 11 14 15 15 16 15 16 14 13 14 16 17 15 16 12 8 9 14 17 16 13 12 12 12 12 11 19 20 21
Wind_Direction
140 136 204 215 208 215 229 249 260 260 263 261 253 260 263 269 269 265 263 263 264 266 265 262 251 230 216 209 205 203 200 198 186 188 190 192 201 197 197 197 191 186 181 176
102 228 227 228 199 233 256 268 270 277 270 254 268 270 264 253 254 256 260 261 260 259 266 266 260 239 216 213 210 207 204 197 193 198 197 193 185 193 197 190 188 187 181 177
206 231 221 218 221 228 237 233 253 260 299 298 290 279 229 242 241 252 256 257 260 260 266 273 272 256 229 223 216 210 208 203 202 196 178 150 134 119 172 193 193 191 185 182
241 261 206 192 217 209 253 230 242 267 294 282 272 293 230 220 235 246 254 259 261 264 264 268 274 282 267 243 218 211 207 205 200 187 187 185 193 198 198 192 189 183 186 186
241 227 196 210 223 197 234 248 243 256 249 277 194 266 281 176 223 243 248 255 260 264 268 276 288 295 284 247 216 211 208 207 199 195 197 197 205 208 184 168 177 181 185 187
254 239 207 216 230 207 225 12 7 54 101 271 203 216 280 160 204 229 245 253 263 275 286 297 310 311 307 291 253 224 212 213 202 200 202 203 207 196 177 178 182 185 185 188
281 245 234 199 232 195 153 140 330 319 263 254 178 221 264 211 207 204 233 261 275 283 295 313 321 319 313 306 285 245 221 220 205 203 208 211 211 201 197 190 187 184 183 192
282 281 228 205 202 200 186 168 191 228 245 271 223 244 257 220 258 273 271 274 288 291 303 306 300 300 300 299 286 252 230 224 207 206 211 211 208 206 206 198 194 192 194 195
239 264 275 214 208 165 177 209 213 223 258 276 265 267 284 217 275 273 274 283 289 298 308 305 304 302 301 302 290 258 239 231 216 212 210 210 207 209 209 198 194 195 193 184
248 282 279 294 80 237 206 214 138 189 226 248 263 269 271 282 264 281 290 296 297 305 314 316 316 315 316 310 303 289 253 238 225 215 214 216 213 213 209 196 199 196 188 179
186 251 278 253 211 222 200 199 207 218 214 231 246 256 265 295 309 313 311 312 312 314 318 322 327 335 341 342 336 319 295 271 249 229 222 221 217 211 206 206 204 197 186 181
199 227 260 252 230 213 222 224 218 237 244 236 251 258 288 305 317 323 326 334 338 345 352 356 359 0 1 358 354 348 333 308 281 258 237 229 222 210 210 213 206 197 193 188
194 230 264 270 271 205 235 250 251 264 266 259 263 269 307 325 329 334 349 11 21 19 13 10 8 5 1 358 355 353 348 334 314 285 255 240 227 218 219 218 209 201 197 192
281 247 254 268 278 297 281 284 288 284 275 274 271 286 304 317 323 335 9 23 24 19 11 5 0 356 353 351 349 348 345 342 334 315 281 255 239 230 227 222 213 206 201 196
2 269 269 276 285 288 288 286 282 275 272 273 279 282 304 348 346 354 9 12 12 8 2 357 351 346 344 343 343 343 342 342 338 329 310 282 263 246 234 223 214 207 204 203
350 273 283 279 279 280 279 274 271 271 270 269 272 279 36 351 358 2 7 4 359 352 346 342 339 339 339 339 338 337 338 338 337 335 327 315 295 270 247 231 216 209 207 202
229 228 254 266 286 312 265 254 259 259 277 304 309 27 355 351 348 341 340 345 338 333 330 329 330 332 331 329 328 330 329 330 335 337 334 330 320 297 272 245 221 214 208 201
222 210 222 261 321 248 245 56 4 78 88 84 94 41 308 305 298 272 262 299 312 316 316 316 320 322 320 318 321 323 323 327 331 335 338 336 330 316 297 267 239 223 208 205
221 216 214 224 237 266 262 7 360 286 203 160 155 282 277 283 284 260 248 277 292 294 294 296 299 304 308 311 319 322 322 325 329 333 335 334 329 320 310 285 262 237 215 211
196 207 217 219 233 245 228 219 254 241 236 200 257 286 283 294 297 286 283 284 285 281 280 285 290 295 300 307 316 318 319 322 326 328 325 323 321 316 308 295 278 254 230 219
338 338 221 231 243 262 244 249 355 284 259 257 277 276 272 257 255 270 285 287 279 278 281 283 286 290 292 302 310 311 313 316 320 320 317 314 311 308 302 294 278 256 234 215
210 227 230 187 220 257 240 334 265 249 269 277 277 269 263 261 264 269 275 280 282 283 283 283 285 288 290 294 300 302 304 311 316 315 313 311 307 301 294 284 272 248 225 215
217 204 198 198 222 242 247 260 263 267 276 280 276 271 264 267 271 273 276 279 281 280 282 283 281 287 289 287 289 294 303 314 315 312 309 308 305 296 282 270 260 241 221 217
234 214 230 253 259 264 268 269 272 271 270 272 270 267 264 268 275 279 282 284 285 286 285 285 284 286 289 291 290 289 303 313 311 305 304 303 302 295 281 262 246 233 222 217
230 214 234 255 266 269 265 264 266 269 267 267 270 268 271 277 282 286 287 286 287 289 290 288 285 286 289 294 293 297 308 311 303 298 295 295 292 289 281 263 246 235 228 222
233 238 251 261 265 265 274 273 276 281 287 299 302 297 296 295 293 294 290 289 291 292 295 295 293 293 295 297 295 297 300 295 292 291 290 288 287 287 283 273 263 248 240 236